SL-12 R/B(AUX MOTOR), 15335

Orbit data source: Space-Track

SL-12 R/B(AUX MOTOR), 15335 is space debris in LEO originally from a launch on Fri, 28 Sep 1984 UTC launched from the Tyuratam Missile And Space Complex (TTMTR). Debris objects in space refer to the collection of defunct objects orbiting the Earth. Examples of debris include non-operational satellites, rocket bodies, and fragments generated from explosions, collisions, or faulty payload assembly.

Loading next visibility...
SL-12 R/B(AUX MOTOR) details
Identifier
15335, 1984-106C
Orbit
LEO
Last TLE update6 hours ago
Origin
Flag of CISRVSN (CIS)
ManufacturerNPO Energiya
MissionSpacecraft
Bus & MotorSOZ, Unknown motor
Mass110 kg wet, 56 kg dry
Launch date (UTC)
1984-09-28 (40 years ago)
Launch vehicleUnknown
Launch site
Tyuratam Missile And Space Complex (TTMTR)
Object type
Payload
Rocket body
Debris
Shape & HBRCyl, 1.1 m
Radar Cross Section0.660 m², Medium (>0.1 m² and < 1m²)

Expand to show TLE details & history

TLE from 6 hours ago
0 SL-12 R/B(AUX MOTOR)
1 15335U 84106C   24361.59545860  .00000384  00000-0  20820-3 0  9994
2 15335  66.5534 307.3987 0020569 247.0575 285.5172 14.22861973 87656
Epoch: 2024-12-26T14:17Z
Definitive object data (Epoch: 2024-12-26T14:17:27.623Z)
Latitude6.95954°
Longitude174.44238°
Altitude813.214 km
Speed7.45 km/s
True Right ascension08h 17m 31s
True Declination6° 55' 07"
Sunlit
Object was in full shadow at TLE epoch
Visualization TLE readout
Latitude-25.84666°
Longitude-15.23074°
Altitude823.164 km
Speed7.442 km/s
Apparent Right ascension20h 10m 05s
Apparent Declination-77° 25' 02"
Sunlit
Object is in daylight
Visualization observer readout
Local Sidereal Time19:28:36
Azimuth177.466° S
Elevation-27.51°
Doppler factor1
Orbital elements
Apogee altitude828.881 km
Perigee altitude799.294 km
Semi-major axis7,192.225 km
Eccentricity0.0020569
Inclination66.5534°
RAAN307.3987°
Arg. of periapsis247.0575°
True anomaly285.28993°
Mean anomaly285.5172°
Eccentric anomaly285.40358°
Mean motion3.55835 °/min
BSTAR0.0002082
Orbital period101.17 mins
Loading maneuver chart data...

SL-12 R/B(AUX MOTOR) Visibility forecast

Observer location: undefined°, undefined

Span
Click to sort rows by Start time (UTC) header in descending order
Start Az.
Max El. time (UTC)
Max El. Az.
Max El.
End time (UTC)
End Az.
10 mins2024-12-26 22:01:50.232Z193.517° SSW2024-12-26 22:06:50.232Z122.165° SE41.278°2024-12-26 22:11:50.232Z37.359° NE
6 mins2024-12-26 23:48:50.232Z278.116° WNW2024-12-26 23:51:50.232Z320.386° NNW20.779°2024-12-26 23:54:50.232Z357.616° N
8 mins2024-12-27 06:54:50.232Z349.188° N2024-12-27 06:58:50.232Z73.004° E36.357°2024-12-27 07:02:50.232Z127.269° SE
7 mins2024-12-27 08:38:50.232Z295.017° NW2024-12-27 08:41:50.232Z255.376° W21.791°2024-12-27 08:45:50.232Z204.489° SW
|